FW9036 Weather Reports


time (UTC)temp
C
wind
direction
speed
KPH
gust
KPH
rain 1hr
cm
rain 24hr
cm
rain mn
cm
humidity
%
barometer
mb
20260831030722 26 31 0.0 0.0 0.00 0.00 0.00 84 1016.9
20260831030221 26 110 0.0 1.6 0.00 0.00 0.00 83 1016.8
20260831025720 26 193 0.0 0.0 0.00 0.00 0.00 83 1017.1
20260831025214 26 127 0.0 0.0 0.00 0.00 0.00 82 1017.2
20260831024710 26 285 0.0 1.6 0.00 0.00 0.00 82 1016.9
20260831024204 26 176 0.0 3.2 0.00 0.00 0.00 81 1017.2
20260831023702 26 250 0.0 0.0 0.00 0.00 0.00 82 1017.2
20260831023201 26 341 0.0 3.2 0.00 0.00 0.00 83 1017.0
20260831022656 26 202 1.6 3.2 0.00 0.00 0.00 84 1016.9
20260831022151 26 127 0.0 1.6 0.00 0.00 0.00 85 1016.8
20260831021650 26 43 0.0 3.2 0.00 0.00 0.00 85 1016.9
20260831021145 27 193 0.0 1.6 0.00 0.00 0.00 85 1016.9
20260831020642 26 108 0.0 3.2 0.00 0.00 0.00 86 1016.9
20260831020136 26 113 0.0 3.2 0.00 0.00 0.00 87 1016.9
20260831015632 26 250 0.0 1.6 0.00 0.00 0.00 86 1016.8
20260831015131 26 205 0.0 1.6 0.00 0.00 0.00 86 1016.8
20260831014626 26 95 0.0 1.6 0.00 0.00 0.00 86 1016.6
20260831014121 27 176 0.0 0.0 0.00 0.00 0.00 87 1016.8
20260831013618 27 30 1.6 1.6 0.00 0.00 0.00 87 1016.8
20260831013117 27 61 0.0 1.6 0.00 0.00 0.00 86 1016.7
20260831012612 27 190 0.0 1.6 0.00 0.00 0.00 86 1016.7
20260831012107 27 146 0.0 1.6 0.00 0.00 0.00 85 1016.8
20260831011606 27 318 0.0 4.8 0.00 0.00 0.00 85 1016.6
20260831011102 27 43 0.0 0.0 0.00 0.00 0.00 85 1016.6
20260831010557 27 101 1.6 3.2 0.00 0.00 0.00 85 1016.7
20260831010054 27 278 0.0 1.6 0.00 0.00 0.00 85 1016.5
20260831005548 27 123 0.0 3.2 0.00 0.00 0.00 84 1016.8
20260831005048 27 153 0.0 3.2 0.00 0.00 0.00 83 1016.4
20260831004544 27 163 0.0 1.6 0.00 0.00 0.00 82 1016.6
20260831004039 27 1 0.0 0.0 0.00 0.00 0.00 82 1016.9
20260831003536 27 18 0.0 0.0 0.00 0.00 0.00 81 1016.7
20260831003031 27 181 0.0 1.6 0.00 0.00 0.00 81 1016.3
20260831002529 27 236 0.0 1.6 0.00 0.00 0.00 81 1016.4
20260831002025 27 84 0.0 3.2 0.00 0.00 0.00 81 1016.2
20260831001521 27 264 0.0 1.6 0.00 0.00 0.00 80 1016.5
20260831001017 27 223 0.0 3.2 0.00 0.00 0.00 79 1016.5
20260831000513 27 60 0.0 3.2 0.00 0.00 0.00 78 1016.2
20260831000012 27 127 0.0 1.6 0.00 0.00 0.00 78 1016.3
20260830235512 27 110 3.2 3.2 0.00 0.00 0.00 77 1016.1
20260830235007 27 236 0.0 1.6 0.00 0.00 0.00 77 1016.0
20260830234502 28 296 0.0 0.0 0.00 0.00 0.00 78 1016.2
20260830233957 28 193 0.0 3.2 0.00 0.00 0.00 77 1016.3
20260830233453 28 346 0.0 3.2 0.00 0.00 0.00 76 1016.2
20260830232948 28 56 1.6 3.2 0.00 0.00 0.00 75 1016.2
20260830232444 28 255 1.6 1.6 0.00 0.00 0.00 74 1016.3
20260830231941 29 47 1.6 3.2 0.00 0.00 0.00 74 1016.1
20260830231436 29 107 3.2 4.8 0.00 0.00 0.00 72 1016.2
20260830230935 30 158 1.6 4.8 0.00 0.00 0.00 72 1015.9
20260830230431 30 201 0.0 4.8 0.00 0.00 0.00 70 1015.8
20260830225930 30 208 4.8 4.8 0.00 0.00 0.00 69 1015.9
20260830225426 31 92 0.0 3.2 0.00 0.00 0.00 67 1016.0
20260830224926 30 198 1.6 3.2 0.00 0.00 0.00 69 1016.0
20260830224424 30 124 3.2 4.8 0.00 0.00 0.00 70 1016.1
20260830223921 30 96 1.6 6.4 0.00 0.00 0.00 70 1016.0
20260830223418 30 169 1.6 6.4 0.00 0.00 0.00 70 1015.8
20260830222916 30 137 9.7 9.7 0.00 0.00 0.00 70 1015.8
20260830222412 30 129 1.6 6.4 0.00 0.00 0.00 70 1015.6
20260830221908 30 166 6.4 6.4 0.00 0.00 0.00 71 1015.6
20260830221404 30 113 3.2 8.0 0.00 0.00 0.00 72 1015.5
20260830220859 30 145 3.2 4.8 0.00 0.00 0.00 74 1015.5
20260830220359 30 73 3.2 6.4 0.00 0.00 0.00 72 1015.6
20260830215856 30 89 3.2 4.8 0.00 0.00 0.00 72 1015.5
20260830215356 30 152 3.2 3.2 0.00 0.00 0.00 73 1015.5
20260830214851 30 100 0.0 4.8 0.00 0.00 0.00 72 1015.6
20260830214347 30 152 0.0 3.2 0.00 0.00 0.00 72 1015.3
20260830213841 30 84 0.0 4.8 0.00 0.00 0.00 71 1015.5
20260830213336 31 129 3.2 4.8 0.00 0.00 0.00 70 1015.5
20260830212832 31 33 4.8 6.4 0.00 0.00 0.00 68 1015.4
20260830212328 32 56 3.2 4.8 0.00 0.00 0.00 66 1015.6
20260830211826 32 142 4.8 4.8 0.00 0.00 0.00 66 1015.4
20260830211321 32 75 0.0 6.4 0.00 0.00 0.00 66 1015.3
20260830210817 31 67 1.6 4.8 0.00 0.00 0.00 67 1015.3
20260830210316 31 82 3.2 6.4 0.00 0.00 0.00 68 1015.4
20260830205814 31 102 4.8 8.0 0.00 0.00 0.00 69 1015.5
20260830205313 32 118 4.8 6.4 0.00 0.00 0.00 65 1015.4
20260830204809 32 180 4.8 4.8 0.00 0.00 0.00 65 1015.6
20260830204308 32 108 6.4 6.4 0.00 0.00 0.00 65 1015.6
20260830203804 33 114 3.2 14.5 0.00 0.00 0.00 64 1015.8
20260830203300 32 67 1.6 4.8 0.00 0.00 0.00 62 1015.8
20260830202759 32 31 4.8 6.4 0.00 0.00 0.00 63 1015.6
20260830202254 32 41 4.8 6.4 0.00 0.00 0.00 62 1015.9
20260830201754 32 51 4.8 8.0 0.00 0.00 0.00 62 1016.2
20260830201249 32 33 4.8 8.0 0.00 0.00 0.00 63 1016.2
20260830200745 32 72 3.2 4.8 0.00 0.00 0.00 63 1016.2
20260830200243 32 79 3.2 4.8 0.00 0.00 0.00 63 1016.2
20260830195740 33 91 0.0 4.8 0.00 0.00 0.00 61 1016.4
20260830195238 32 56 3.2 4.8 0.00 0.00 0.00 61 1016.5
20260830194736 32 108 3.2 6.4 0.00 0.00 0.00 61 1016.3
20260830194231 33 129 3.2 6.4 0.00 0.00 0.00 62 1016.4
20260830193726 33 157 3.2 6.4 0.00 0.00 0.00 60 1016.6
20260830193220 33 116 3.2 6.4 0.00 0.00 0.00 61 1016.7
20260830192716 32 32 6.4 8.0 0.00 0.00 0.00 61 1016.5
20260830192211 32 0 3.2 8.0 0.00 0.00 0.00 61 1016.6
20260830191707 32 23 6.4 8.0 0.00 0.00 0.00 59 1016.5
20260830191201 32 31 6.4 11.3 0.00 0.00 0.00 58 1016.5
20260830190656 32 128 0.0 4.8 0.00 0.00 0.00 59 1016.5
20260830190151 33 101 3.2 6.4 0.00 0.00 0.00 58 1016.2
20260830185649 33 97 4.8 6.4 0.00 0.00 0.00 58 1016.3
20260830185146 33 96 1.6 6.4 0.00 0.00 0.00 58 1016.7
20260830184644 33 82 3.2 6.4 0.00 0.00 0.00 58 1016.5
20260830184139 33 107 3.2 4.8 0.00 0.00 0.00 59 1016.7
20260830183634 33 163 1.6 3.2 0.00 0.00 0.00 59 1016.6
20260830183129 32 100 4.8 8.0 0.00 0.00 0.00 60 1016.7
20260830182624 33 83 3.2 4.8 0.00 0.00 0.00 56 1016.8
20260830182120 33 144 6.4 12.9 0.00 0.00 0.00 56 1016.6
20260830181616 32 106 1.6 6.4 0.00 0.00 0.00 58 1016.7
20260830181116 33 43 6.4 8.0 0.00 0.00 0.00 55 1017.1
20260830180615 33 86 4.8 6.4 0.00 0.00 0.00 54 1016.9
20260830180115 33 35 3.2 4.8 0.00 0.00 0.00 56 1017.0
20260830175613 33 77 3.2 8.0 0.00 0.00 0.00 60 1017.0
20260830175109 33 118 4.8 4.8 0.00 0.00 0.00 58 1016.9
20260830174604 32 136 4.8 8.0 0.00 0.00 0.00 58 1017.2
20260830174100 32 56 1.6 9.7 0.00 0.00 0.00 57 1017.2
20260830173555 32 99 4.8 8.0 0.00 0.00 0.00 57 1017.1
20260830173050 33 35 3.2 8.0 0.00 0.00 0.00 57 1017.1
20260830172547 33 342 1.6 4.8 0.00 0.00 0.00 56 1017.3
20260830172043 33 94 3.2 6.4 0.00 0.00 0.00 55 1017.4
20260830171538 33 101 0.0 4.8 0.00 0.00 0.00 56 1017.2
20260830171033 32 81 3.2 4.8 0.00 0.00 0.00 56 1017.2
20260830170532 32 72 1.6 6.4 0.00 0.00 0.00 55 1017.4
20260830170032 32 107 1.6 4.8 0.00 0.00 0.00 57 1017.2
20260830165527 32 117 3.2 4.8 0.00 0.00 0.00 58 1017.3
20260830165023 32 62 4.8 6.4 0.00 0.00 0.00 59 1017.7
20260830164518 32 72 3.2 4.8 0.00 0.00 0.00 59 1017.6
20260830164014 32 94 0.0 4.8 0.00 0.00 0.00 59 1017.8
20260830163511 32 50 1.6 6.4 0.00 0.00 0.00 58 1018.0
20260830163010 32 26 4.8 6.4 0.00 0.00 0.00 57 1017.9
20260830162507 31 172 0.0 4.8 0.00 0.00 0.00 57 1017.8
20260830162006 31 30 3.2 6.4 0.00 0.00 0.00 59 1017.7
20260830161501 31 46 3.2 8.0 0.00 0.00 0.00 59 1017.9
20260830160956 31 123 0.0 4.8 0.00 0.00 0.00 57 1018.0
20260830160453 31 128 3.2 4.8 0.00 0.00 0.00 61 1018.0
20260830155953 31 170 1.6 6.4 0.00 0.00 0.00 60 1018.1
20260830155450 31 146 1.6 3.2 0.00 0.00 0.00 60 1018.2
20260830154944 31 128 1.6 3.2 0.00 0.00 0.00 61 1018.1
20260830154440 31 26 3.2 4.8 0.00 0.00 0.00 61 1018.0
20260830153936 31 43 1.6 4.8 0.00 0.00 0.00 60 1018.2
20260830153432 30 155 0.0 1.6 0.00 0.00 0.00 63 1018.3
20260830152931 30 260 3.2 4.8 0.00 0.00 0.00 63 1018.2
20260830152426 30 4 1.6 4.8 0.00 0.00 0.00 63 1018.1
20260830151925 30 314 1.6 9.7 0.00 0.00 0.00 63 1018.2
20260830151425 30 353 3.2 4.8 0.00 0.00 0.00 65 1018.3
20260830150920 30 315 3.2 4.8 0.00 0.00 0.00 68 1018.0
20260830150420 30 111 3.2 3.2 0.00 0.00 0.00 69 1018.0
20260830145914 29 73 1.6 4.8 0.00 0.00 0.00 68 1018.1
20260830145409 29 115 0.0 1.6 0.00 0.00 0.00 69 1017.9
20260830144904 29 351 0.0 4.8 0.00 0.00 0.00 71 1018.1
20260830144400 29 86 1.6 3.2 0.00 0.00 0.00 71 1017.9
20260830143855 28 31 0.0 3.2 0.00 0.00 0.00 71 1018.0
20260830143350 29 319 1.6 4.8 0.00 0.00 0.00 72 1017.9
20260830142849 28 12 0.0 4.8 0.00 0.00 0.00 73 1018.0
20260830142344 28 132 0.0 1.6 0.00 0.00 0.00 74 1018.0
20260830141839 28 78 0.0 6.4 0.00 0.00 0.00 73 1018.0
20260830141334 28 211 0.0 4.8 0.00 0.00 0.00 73 1018.4
20260830140830 28 161 3.2 3.2 0.00 0.00 0.00 76 1018.1
20260830140325 28 183 0.0 4.8 0.00 0.00 0.00 76 1018.2
20260830135819 28 50 1.6 3.2 0.00 0.00 0.00 76 1018.1
20260830135314 28 198 0.0 1.6 0.00 0.00 0.00 77 1018.0
20260830134810 28 180 1.6 1.6 0.00 0.00 0.00 78 1018.1
20260830134310 28 347 0.0 3.2 0.00 0.00 0.00 79 1018.1
20260830133806 27 109 0.0 3.2 0.00 0.00 0.00 79 1018.0
20260830133301 27 229 3.2 4.8 0.00 0.00 0.00 80 1018.0
20260830132757 27 265 0.0 0.0 0.00 0.00 0.00 81 1018.1
20260830132253 27 8 0.0 4.8 0.00 0.00 0.00 82 1018.0
20260830131751 27 127 0.0 4.8 0.00 0.00 0.00 83 1018.0
20260830131246 27 216 0.0 3.2 0.00 0.00 0.00 85 1018.1
20260830130742 27 70 0.0 0.0 0.00 0.00 0.00 85 1017.9
20260830130241 27 31 0.0 0.0 0.00 0.00 0.00 85 1018.0
20260830125736 26 101 0.0 4.8 0.00 0.00 0.00 86 1017.9
20260830125231 26 105 0.0 1.6 0.00 0.00 0.00 88 1017.7
20260830124728 26 17 1.6 1.6 0.00 0.00 0.00 87 1017.6
20260830124224 26 262 0.0 1.6 0.00 0.00 0.00 88 1017.7
20260830123721 26 108 0.0 1.6 0.00 0.00 0.00 88 1017.6
20260830123217 26 36 0.0 1.6 0.00 0.00 0.00 88 1017.6
20260830122714 26 176 0.0 1.6 0.00 0.00 0.00 88 1017.7
20260830122209 25 342 3.2 3.2 0.00 0.00 0.00 88 1017.5
20260830121704 25 33 1.6 3.2 0.00 0.00 0.00 88 1017.4
20260830121204 25 125 1.6 1.6 0.00 0.00 0.00 89 1017.6
20260830120658 25 13 3.2 3.2 0.00 0.00 0.00 89 1017.6
20260830120155 25 183 0.0 1.6 0.00 0.00 0.00 89 1017.6
20260830115651 25 43 0.0 1.6 0.00 0.00 0.00 89 1017.4
20260830115146 25 123 0.0 0.0 0.00 0.00 0.00 90 1017.5
20260830114643 25 264 0.0 0.0 0.00 0.00 0.00 89 1017.5
20260830114142 25 15 1.6 1.6 0.00 0.00 0.00 89 1017.3
20260830113632 25 205 0.0 1.6 0.00 0.00 0.00 89 1017.3
20260830113127 25 193 0.0 0.0 0.00 0.00 0.00 89 1017.2
20260830112624 25 85 0.0 0.0 0.00 0.00 0.00 89 1017.3
20260830112119 24 153 0.0 0.0 0.00 0.00 0.00 89 1017.0
20260830111615 24 278 0.0 0.0 0.00 0.00 0.00 90 1017.3
20260830111110 24 161 0.0 0.0 0.00 0.00 0.00 90 1017.3
20260830110610 25 49 0.0 0.0 0.00 0.00 0.00 89 1017.1
20260830110106 25 144 0.0 0.0 0.00 0.00 0.00 89 1017.0
20260830105600 25 18 0.0 0.0 0.00 0.00 0.00 89 1017.0
20260830105057 25 98 0.0 0.0 0.00 0.00 0.00 89 1016.9
20260830104554 25 100 0.0 0.0 0.00 0.00 0.00 88 1016.5
20260830104050 25 100 0.0 1.6 0.00 0.00 0.00 87 1016.7
20260830103549 25 315 0.0 1.6 0.00 0.00 0.00 87 1016.5
20260830103048 25 271 0.0 0.0 0.00 0.00 0.00 87 1016.9
20260830102543 25 134 0.0 0.0 0.00 0.00 0.00 87 1016.6
20260830102039 25 186 0.0 0.0 0.00 0.00 0.00 87 1016.2
20260830101534 25 105 0.0 0.0 0.00 0.00 0.00 88 1016.5
20260830101034 25 332 0.0 0.0 0.00 0.00 0.00 88 1016.4
20260830100528 25 265 0.0 0.0 0.00 0.00 0.00 88 1016.0
20260830100027 25 302 0.0 1.6 0.00 0.00 0.00 88 1015.9
20260830095522 25 81 0.0 1.6 0.00 0.00 0.00 87 1016.1
20260830095018 25 239 1.6 1.6 0.00 0.00 0.00 89 1016.1
20260830094514 25 230 0.0 3.2 0.00 0.00 0.00 89 1015.9
20260830094009 25 130 0.0 1.6 0.00 0.00 0.00 90 1016.3
20260830093504 25 274 0.0 1.6 0.00 0.00 0.00 92 1016.2
20260830093001 25 95 1.6 3.2 0.00 0.00 0.00 95 1016.1
20260830092500 25 70 0.0 4.8 0.00 0.00 0.00 96 1016.0
20260830091957 25 303 0.0 1.6 0.00 0.00 0.00 95 1015.9
20260830091452 25 3 0.0 0.0 0.00 0.00 0.00 95 1016.2
20260830090951 25 250 0.0 1.6 0.00 0.00 0.00 95 1016.0
20260830090446 25 113 3.2 3.2 0.00 0.00 0.00 95 1016.0
20260830085941 25 104 0.0 1.6 0.00 0.00 0.00 95 1016.0
20260830085436 26 236 0.0 1.6 0.00 0.00 0.00 94 1016.2
20260830084932 26 290 0.0 0.0 0.00 0.00 0.00 94 1016.3
20260830084427 26 290 0.0 0.0 0.00 0.00 0.00 94 1016.3
20260830083922 26 98 0.0 0.0 0.00 0.00 0.00 93 1016.1
20260830083418 26 70 0.0 3.2 0.00 0.00 0.00 94 1016.3
20260830082917 26 155 0.0 0.0 0.00 0.00 0.00 94 1016.3
20260830082413 26 6 0.0 1.6 0.00 0.00 0.00 94 1016.2
20260830081908 26 276 1.6 1.6 0.00 0.00 0.00 94 1016.5
20260830081403 26 135 1.6 1.6 0.00 0.00 0.00 94 1016.4
20260830080902 25 134 0.0 0.0 0.00 0.00 0.00 94 1016.6
20260830080359 25 134 0.0 0.0 0.00 0.00 0.00 94 1016.6
20260830075857 25 127 0.0 0.0 0.00 0.00 0.00 94 1016.5
20260830075353 25 127 0.0 0.0 0.00 0.00 0.00 94 1016.9
20260830074848 25 127 0.0 0.0 0.00 0.00 0.00 95 1016.9
20260830074343 25 127 0.0 0.0 0.00 0.00 0.00 95 1016.8
20260830073839 25 83 0.0 0.0 0.00 0.00 0.00 95 1017.0
20260830073335 25 83 0.0 0.0 0.00 0.00 0.00 95 1017.1
20260830072830 25 83 0.0 0.0 0.00 0.00 0.00 95 1016.8
20260830072326 25 83 0.0 0.0 0.00 0.00 0.00 94 1016.9
20260830071825 25 83 0.0 0.0 0.00 0.00 0.00 94 1017.0
20260830071320 25 110 0.0 0.0 0.00 0.00 0.00 94 1017.0
20260830070819 25 6 0.0 0.0 0.00 0.00 0.00 93 1017.0
20260830070313 25 6 0.0 0.0 0.00 0.00 0.00 93 1016.8
20260830065812 25 174 0.0 0.0 0.00 0.00 0.00 93 1016.8
20260830065307 26 211 0.0 0.0 0.00 0.00 0.00 92 1016.8
20260830064805 26 43 0.0 0.0 0.00 0.00 0.00 92 1017.0
20260830064256 26 43 0.0 0.0 0.00 0.00 0.00 92 1016.6
20260830063755 26 85 0.0 1.6 0.00 0.00 0.00 92 1016.7
20260830063256 26 123 0.0 0.0 0.00 0.00 0.00 91 1016.5
20260830062750 26 198 0.0 0.0 0.00 0.00 0.00 90 1016.6
20260830062249 26 34 0.0 0.0 0.00 0.00 0.00 90 1016.7
20260830061744 26 105 0.0 0.0 0.00 0.00 0.00 90 1016.5
20260830061239 26 265 0.0 3.2 0.00 0.00 0.00 90 1016.5
20260830060736 26 91 0.0 1.6 0.00 0.00 0.00 89 1016.5
20260830060233 26 43 0.0 0.0 0.00 0.00 0.00 88 1016.3
20260830055727 26 237 0.0 0.0 0.00 0.00 0.00 88 1016.1
20260830055224 26 163 0.0 0.0 0.00 0.00 0.00 87 1016.3
20260830054718 26 18 0.0 0.0 0.00 0.00 0.00 87 1016.4
20260830054209 26 345 0.0 0.0 0.00 0.00 0.00 87 1016.4
20260830053704 26 31 0.0 3.2 0.00 0.00 0.00 87 1016.6
20260830053203 26 211 0.0 1.6 0.00 0.00 0.00 86 1016.3
20260830052658 26 18 0.0 1.6 0.00 0.00 0.00 86 1016.3
20260830052154 26 47 0.0 0.0 0.00 0.00 0.00 86 1016.1
20260830051653 26 265 1.6 1.6 0.00 0.00 0.00 85 1016.2
20260830051149 26 41 0.0 1.6 0.00 0.00 0.00 86 1016.4
20260830050648 26 13 0.0 0.0 0.00 0.00 0.00 87 1016.2
20260830050143 26 205 0.0 0.0 0.00 0.00 0.00 86 1016.0
20260830045641 26 110 0.0 0.0 0.00 0.00 0.00 85 1015.9
20260830045137 26 6 0.0 0.0 0.00 0.00 0.00 85 1015.8
20260830044636 26 6 0.0 0.0 0.00 0.00 0.00 85 1016.1
20260830044131 26 6 0.0 0.0 0.00 0.00 0.00 84 1016.0
20260830043627 26 351 0.0 0.0 0.00 0.00 0.00 84 1016.0
20260830043126 26 198 0.0 0.0 0.00 0.00 0.00 85 1016.1
20260830042624 26 198 0.0 0.0 0.00 0.00 0.00 85 1016.1
20260830042119 26 198 0.0 0.0 0.00 0.00 0.00 83 1016.3
20260830041618 26 198 0.0 0.0 0.00 0.00 0.00 83 1016.0
20260830041117 26 198 0.0 0.0 0.00 0.00 0.00 83 1016.2
20260830040613 26 198 0.0 0.0 0.00 0.00 0.00 83 1016.4
20260830040109 26 85 0.0 0.0 0.00 0.00 0.00 84 1016.4
20260830035606 26 85 0.0 0.0 0.00 0.05 0.05 84 1016.7
20260830035102 26 18 0.0 0.0 0.00 0.05 0.05 85 1016.7
20260830034557 26 18 0.0 0.0 0.00 0.05 0.05 85 1016.7
20260830034056 26 18 0.0 0.0 0.00 0.05 0.05 85 1016.5
20260830033552 26 18 0.0 0.0 0.00 0.05 0.05 85 1016.6
20260830033047 26 18 0.0 0.0 0.00 0.05 0.05 84 1016.8
20260830032546 26 199 0.0 0.0 0.00 0.05 0.05 84 1016.9
20260830032042 27 199 0.0 0.0 0.00 0.05 0.05 84 1016.9
20260830031537 27 57 0.0 0.0 0.00 0.05 0.05 84 1017.0
20260830031032 27 36 0.0 0.0 0.00 0.05 0.05 84 1017.4